| time (UTC) | temp F | wind direction | speed MPH | gust MPH | rain 1hr in | rain 24hr in | rain mn in | humidity % | barometer mb |
| 20260510185150 | 56 | 66 | 0.0 | 2.0 | 0.00 | 0.01 | 0.01 | 83 | 1010.7 |
| 20260510184646 | 56 | 293 | 0.0 | 2.0 | 0.00 | 0.01 | 0.01 | 85 | 1010.6 |
| 20260510184556 | 56 | 242 | 1.0 | 3.0 | 0.00 | 0.02 | 0.00 | 86 | 1009.8 |
| 20260510184142 | 55 | 230 | 1.0 | 3.0 | 0.00 | 0.01 | 0.01 | 86 | 1010.7 |
| 20260510183637 | 55 | 29 | 0.0 | 2.0 | 0.00 | 0.01 | 0.01 | 86 | 1010.7 |
| 20260510183133 | 55 | 41 | 1.0 | 1.0 | 0.00 | 0.01 | 0.01 | 86 | 1010.6 |
| 20260510183056 | 55 | 229 | 0.0 | 2.0 | 0.00 | 0.02 | 0.00 | 86 | 1009.6 |
| 20260510182630 | 55 | 55 | 0.0 | 2.0 | 0.00 | 0.01 | 0.01 | 86 | 1010.4 |
| 20260510182125 | 56 | 44 | 0.0 | 1.0 | 0.00 | 0.01 | 0.01 | 86 | 1010.8 |
| 20260510181623 | 56 | 55 | 0.0 | 1.0 | 0.00 | 0.01 | 0.01 | 85 | 1010.5 |
| 20260510181556 | 56 | 229 | 1.0 | 2.0 | 0.00 | 0.02 | 0.00 | 87 | 1009.6 |
| 20260510181119 | 56 | 53 | 0.0 | 2.0 | 0.00 | 0.01 | 0.01 | 86 | 1010.6 |
| 20260510180615 | 56 | 69 | 1.0 | 2.0 | 0.02 | 0.01 | 0.01 | 88 | 1010.5 |
| 20260510180113 | 55 | 77 | 2.0 | 2.0 | 0.02 | 0.01 | 0.01 | 88 | 1010.5 |
| 20260510180056 | 56 | 206 | 0.0 | 3.0 | 0.00 | 0.02 | 0.00 | 87 | 1009.4 |
| 20260510175608 | 55 | 52 | 2.0 | 3.0 | 0.00 | 0.00 | 0.00 | 88 | 1010.5 |
| 20260510175104 | 56 | 17 | 0.0 | 2.0 | 0.00 | 0.00 | 0.00 | 88 | 1010.4 |
| 20260510174603 | 56 | 60 | 1.0 | 2.0 | 0.00 | 0.00 | 0.00 | 86 | 1010.3 |
| 20260510174556 | 57 | 121 | 1.0 | 3.0 | 0.00 | 0.02 | 0.00 | 87 | 1009.4 |
| 20260510174059 | 57 | 140 | 0.0 | 4.0 | 0.00 | 0.00 | 0.00 | 86 | 1010.4 |
| 20260510173554 | 57 | 304 | 0.0 | 2.0 | 0.00 | 0.00 | 0.00 | 85 | 1010.3 |
| 20260510173057 | 57 | 265 | 0.0 | 2.0 | 0.00 | 0.03 | 0.00 | 86 | 1009.2 |
| 20260510173052 | 57 | 86 | 2.0 | 2.0 | 0.02 | 0.00 | 0.00 | 86 | 1010.3 |
| 20260510172547 | 57 | 214 | 0.0 | 2.0 | 0.02 | 0.00 | 0.00 | 84 | 1010.2 |
| 20260510172044 | 57 | 287 | 0.0 | 2.0 | 0.00 | 0.00 | 0.00 | 84 | 1010.4 |
| 20260510171558 | 58 | 204 | 1.0 | 3.0 | 0.00 | 0.03 | 0.00 | 83 | 1009.1 |
| 20260510171541 | 58 | 48 | 0.0 | 3.0 | 0.00 | 0.00 | 0.00 | 83 | 1010.0 |
| 20260510171038 | 58 | 255 | 1.0 | 2.0 | 0.00 | 0.00 | 0.00 | 82 | 1010.0 |
| 20260510170534 | 58 | 29 | 1.0 | 2.0 | 0.00 | 0.00 | 0.00 | 81 | 1009.8 |
| 20260510170031 | 58 | 0 | 0.0 | 3.0 | 0.00 | 0.00 | 0.00 | 80 | 1010.1 |
| 20260510165526 | 59 | 331 | 0.0 | 2.0 | 0.00 | 0.00 | 0.00 | 77 | 1010.0 |
| 20260510165023 | 60 | 64 | 2.0 | 5.0 | 0.00 | 0.00 | 0.00 | 73 | 1009.8 |
| 20260510164557 | 61 | 289 | 1.0 | 5.0 | 0.00 | 0.04 | 0.00 | 70 | 1008.7 |
| 20260510164520 | 61 | 49 | 0.0 | 2.0 | 0.00 | 0.00 | 0.00 | 71 | 1009.6 |
| 20260510164017 | 61 | 28 | 0.0 | 2.0 | 0.00 | 0.00 | 0.00 | 68 | 1009.5 |
| 20260510163512 | 62 | 52 | 0.0 | 2.0 | 0.00 | 0.00 | 0.00 | 68 | 1009.2 |
| 20260510163008 | 62 | 43 | 1.0 | 2.0 | 0.00 | 0.00 | 0.00 | 63 | 1008.9 |
| 20260510162504 | 62 | 329 | 0.0 | 0.0 | 0.00 | 0.00 | 0.00 | 61 | 1009.1 |
| 20260510162000 | 63 | 71 | 2.0 | 2.0 | 0.00 | 0.00 | 0.00 | 62 | 1009.0 |
| 20260510161558 | 63 | 291 | 0.0 | 1.0 | 0.00 | 0.05 | 0.00 | 63 | 1007.8 |
| 20260510161456 | 63 | 48 | 1.0 | 2.0 | 0.00 | 0.00 | 0.00 | 64 | 1009.0 |
| 20260510160953 | 63 | 4 | 0.0 | 0.0 | 0.00 | 0.00 | 0.00 | 62 | 1008.7 |
| 20260510160450 | 63 | 71 | 2.0 | 2.0 | 0.00 | 0.00 | 0.00 | 63 | 1008.9 |
| 20260510160056 | 64 | 253 | 0.0 | 2.0 | 0.00 | 0.06 | 0.00 | 61 | 1007.5 |
| 20260510155948 | 63 | 36 | 0.0 | 1.0 | 0.00 | 0.00 | 0.00 | 60 | 1008.7 |
| 20260510155446 | 64 | 265 | 0.0 | 2.0 | 0.00 | 0.00 | 0.00 | 60 | 1008.9 |
| 20260510154943 | 64 | 68 | 2.0 | 3.0 | 0.00 | 0.00 | 0.00 | 65 | 1008.9 |
| 20260510154556 | 65 | 226 | 1.0 | 3.0 | 0.00 | 0.06 | 0.00 | 59 | 1007.6 |
| 20260510154439 | 65 | 326 | 0.0 | 1.0 | 0.00 | 0.00 | 0.00 | 57 | 1008.8 |
| 20260510153937 | 64 | 214 | 0.0 | 4.0 | 0.00 | 0.00 | 0.00 | 59 | 1009.1 |
| 20260510153434 | 65 | 92 | 2.0 | 2.0 | 0.00 | 0.00 | 0.00 | 60 | 1009.0 |
| 20260510153057 | 65 | 163 | 1.0 | 3.0 | 0.00 | 0.07 | 0.00 | 60 | 1007.7 |
| 20260510152931 | 65 | 89 | 0.0 | 3.0 | 0.00 | 0.00 | 0.00 | 58 | 1009.0 |
| 20260510152429 | 65 | 104 | 1.0 | 2.0 | 0.00 | 0.00 | 0.00 | 65 | 1008.9 |
| 20260510151925 | 65 | 87 | 0.0 | 2.0 | 0.00 | 0.00 | 0.00 | 64 | 1009.2 |
| 20260510151556 | 63 | 184 | 1.0 | 3.0 | 0.00 | 0.08 | 0.00 | 64 | 1008.0 |
| 20260510151422 | 65 | 26 | 2.0 | 3.0 | 0.00 | 0.00 | 0.00 | 59 | 1009.0 |
| 20260510150918 | 63 | 75 | 2.0 | 2.0 | 0.00 | 0.00 | 0.00 | 67 | 1009.3 |
| 20260510150414 | 63 | 253 | 1.0 | 4.0 | 0.00 | 0.00 | 0.00 | 67 | 1009.4 |
| 20260510150056 | 62 | 38 | 1.0 | 3.0 | 0.00 | 0.08 | 0.00 | 62 | 1008.1 |
| 20260510145910 | 63 | 64 | 2.0 | 4.0 | 0.00 | 0.00 | 0.00 | 61 | 1009.0 |
| 20260510145407 | 63 | 101 | 3.0 | 4.0 | 0.00 | 0.00 | 0.00 | 61 | 1009.2 |
| 20260510144903 | 63 | 36 | 0.0 | 3.0 | 0.00 | 0.00 | 0.00 | 64 | 1009.4 |
| 20260510144400 | 64 | 60 | 0.0 | 3.0 | 0.00 | 0.00 | 0.00 | 64 | 1009.3 |
| 20260510143855 | 64 | 44 | 2.0 | 3.0 | 0.00 | 0.00 | 0.00 | 64 | 1009.0 |
| 20260510143351 | 61 | 44 | 2.0 | 3.0 | 0.00 | 0.00 | 0.00 | 70 | 1008.9 |
| 20260510143057 | 61 | 76 | 1.0 | 2.0 | 0.00 | 0.10 | 0.00 | 67 | 1007.7 |
| 20260510142848 | 61 | 35 | 1.0 | 3.0 | 0.00 | 0.00 | 0.00 | 67 | 1009.0 |
| 20260510142344 | 60 | 50 | 1.0 | 2.0 | 0.00 | 0.00 | 0.00 | 69 | 1009.0 |
| 20260510141841 | 61 | 77 | 2.0 | 2.0 | 0.00 | 0.00 | 0.00 | 70 | 1009.1 |
| 20260510141556 | 61 | 232 | 1.0 | 3.0 | 0.00 | 0.11 | 0.00 | 70 | 1007.9 |
| 20260510141339 | 64 | 235 | 3.0 | 3.0 | 0.00 | 0.00 | 0.00 | 68 | 1008.8 |
| 20260510140836 | 62 | 52 | 0.0 | 2.0 | 0.00 | 0.00 | 0.00 | 68 | 1008.7 |
| 20260510140332 | 60 | 59 | 2.0 | 3.0 | 0.00 | 0.00 | 0.00 | 71 | 1008.8 |
| 20260510135831 | 61 | 61 | 1.0 | 3.0 | 0.00 | 0.00 | 0.00 | 68 | 1008.7 |
| 20260510135327 | 61 | 62 | 1.0 | 3.0 | 0.00 | 0.00 | 0.00 | 74 | 1008.8 |
| 20260510134825 | 60 | 47 | 2.0 | 3.0 | 0.00 | 0.00 | 0.00 | 72 | 1008.9 |
| 20260510134557 | 58 | 102 | 0.0 | 2.0 | 0.00 | 0.11 | 0.00 | 77 | 1007.8 |
| 20260510134322 | 59 | 81 | 2.0 | 2.0 | 0.00 | 0.00 | 0.00 | 78 | 1009.0 |
| 20260510133817 | 57 | 48 | 0.0 | 1.0 | 0.00 | 0.00 | 0.00 | 77 | 1009.0 |
| 20260510133314 | 57 | 53 | 2.0 | 2.0 | 0.00 | 0.00 | 0.00 | 77 | 1009.0 |
| 20260510132809 | 57 | 37 | 0.0 | 2.0 | 0.00 | 0.00 | 0.00 | 79 | 1009.0 |
| 20260510132308 | 56 | 42 | 0.0 | 2.0 | 0.00 | 0.00 | 0.00 | 81 | 1008.8 |
| 20260510131804 | 56 | 35 | 0.0 | 2.0 | 0.00 | 0.00 | 0.00 | 80 | 1008.8 |
| 20260510131558 | 55 | 158 | 0.0 | 0.0 | 0.00 | 0.12 | 0.00 | 82 | 1007.7 |
| 20260510131302 | 56 | 63 | 2.0 | 2.0 | 0.00 | 0.00 | 0.00 | 81 | 1008.8 |
| 20260510130758 | 55 | 39 | 0.0 | 1.0 | 0.00 | 0.00 | 0.00 | 81 | 1008.7 |
| 20260510130255 | 55 | 34 | 0.0 | 2.0 | 0.00 | 0.00 | 0.00 | 83 | 1008.9 |
| 20260510130058 | 55 | 158 | 0.0 | 0.0 | 0.00 | 0.13 | 0.00 | 81 | 1007.7 |
| 20260510125752 | 55 | 229 | 0.0 | 2.0 | 0.00 | 0.00 | 0.00 | 80 | 1008.9 |
| 20260510125247 | 56 | 37 | 0.0 | 1.0 | 0.00 | 0.00 | 0.00 | 79 | 1008.8 |
| 20260510124744 | 57 | 44 | 0.0 | 2.0 | 0.00 | 0.00 | 0.00 | 76 | 1008.7 |
| 20260510124556 | 56 | 158 | 0.0 | 0.0 | 0.00 | 0.13 | 0.00 | 81 | 1007.8 |
| 20260510124242 | 58 | 50 | 0.0 | 2.0 | 0.00 | 0.00 | 0.00 | 76 | 1008.9 |
| 20260510123737 | 58 | 45 | 3.0 | 3.0 | 0.00 | 0.00 | 0.00 | 77 | 1008.7 |
| 20260510123234 | 58 | 52 | 2.0 | 2.0 | 0.00 | 0.00 | 0.00 | 75 | 1008.7 |
| 20260510123057 | 55 | 155 | 0.0 | 1.0 | 0.00 | 0.14 | 0.00 | 86 | 1007.6 |
| 20260510122730 | 57 | 68 | 2.0 | 3.0 | 0.00 | 0.00 | 0.00 | 79 | 1008.8 |
| 20260510122226 | 56 | 39 | 2.0 | 2.0 | 0.00 | 0.00 | 0.00 | 83 | 1008.5 |
| 20260510121722 | 54 | 228 | 1.0 | 2.0 | 0.00 | 0.00 | 0.00 | 85 | 1008.3 |
| 20260510121556 | 52 | 222 | 0.0 | 0.0 | 0.00 | 0.14 | 0.00 | 92 | 1007.4 |
| 20260510121220 | 53 | 61 | 0.0 | 1.0 | 0.00 | 0.00 | 0.00 | 87 | 1008.5 |
| 20260510120717 | 53 | 65 | 2.0 | 2.0 | 0.00 | 0.00 | 0.00 | 89 | 1008.4 |
| 20260510120214 | 52 | 34 | 2.0 | 3.0 | 0.00 | 0.00 | 0.00 | 90 | 1008.3 |
| 20260510115709 | 52 | 54 | 2.0 | 2.0 | 0.00 | 0.00 | 0.00 | 91 | 1008.2 |
| 20260510115208 | 51 | 26 | 0.0 | 2.0 | 0.00 | 0.00 | 0.00 | 91 | 1008.2 |
| 20260510114703 | 51 | 230 | 0.0 | 0.0 | 0.00 | 0.00 | 0.00 | 92 | 1008.3 |
| 20260510114557 | 51 | 222 | 0.0 | 1.0 | 0.00 | 0.15 | 0.00 | 95 | 1007.2 |
| 20260510114200 | 51 | 69 | 0.0 | 2.0 | 0.00 | 0.00 | 0.00 | 93 | 1008.4 |
| 20260510113655 | 51 | 59 | 1.0 | 2.0 | 0.00 | 0.00 | 0.00 | 93 | 1008.0 |
| 20260510113152 | 51 | 62 | 2.0 | 2.0 | 0.00 | 0.00 | 0.00 | 94 | 1008.0 |
| 20260510113057 | 50 | 222 | 0.0 | 0.0 | 0.00 | 0.15 | 0.00 | 96 | 1006.9 |
| 20260510112649 | 50 | 63 | 2.0 | 2.0 | 0.00 | 0.00 | 0.00 | 94 | 1007.8 |
| 20260510112146 | 50 | 59 | 2.0 | 2.0 | 0.00 | 0.00 | 0.00 | 95 | 1008.0 |
| 20260510111642 | 50 | 60 | 1.0 | 2.0 | 0.00 | 0.00 | 0.00 | 95 | 1007.7 |
| 20260510111556 | 50 | 222 | 0.0 | 0.0 | 0.00 | 0.15 | 0.00 | 96 | 1006.7 |
| 20260510111138 | 50 | 58 | 2.0 | 2.0 | 0.00 | 0.00 | 0.00 | 96 | 1007.6 |
| 20260510110633 | 50 | 87 | 1.0 | 2.0 | 0.00 | 0.00 | 0.00 | 96 | 1007.4 |
| 20260510110131 | 50 | 46 | 2.0 | 3.0 | 0.00 | 0.00 | 0.00 | 96 | 1007.2 |
| 20260510110057 | 49 | 222 | 0.0 | 1.0 | 0.00 | 0.15 | 0.00 | 96 | 1006.1 |
| 20260510105627 | 49 | 75 | 0.0 | 2.0 | 0.00 | 0.00 | 0.00 | 96 | 1007.0 |
| 20260510105126 | 49 | 60 | 2.0 | 3.0 | 0.00 | 0.00 | 0.00 | 96 | 1006.9 |
| 20260510104624 | 48 | 70 | 0.0 | 2.0 | 0.00 | 0.00 | 0.00 | 96 | 1007.0 |
| 20260510104557 | 49 | 222 | 0.0 | 0.0 | 0.00 | 0.15 | 0.00 | 95 | 1006.0 |
| 20260510104120 | 48 | 55 | 2.0 | 2.0 | 0.00 | 0.00 | 0.00 | 96 | 1006.8 |
| 20260510103617 | 48 | 62 | 2.0 | 3.0 | 0.00 | 0.00 | 0.00 | 96 | 1006.9 |
| 20260510103113 | 48 | 58 | 2.0 | 3.0 | 0.00 | 0.00 | 0.00 | 96 | 1006.9 |
| 20260510103058 | 49 | 222 | 0.0 | 0.0 | 0.00 | 0.15 | 0.00 | 95 | 1005.7 |
| 20260510102608 | 48 | 51 | 2.0 | 2.0 | 0.00 | 0.00 | 0.00 | 96 | 1006.7 |
| 20260510102104 | 48 | 65 | 2.0 | 2.0 | 0.00 | 0.00 | 0.00 | 96 | 1006.8 |
| 20260510101603 | 48 | 60 | 2.0 | 2.0 | 0.00 | 0.00 | 0.00 | 96 | 1006.6 |
| 20260510101557 | 48 | 222 | 0.0 | 1.0 | 0.00 | 0.15 | 0.00 | 95 | 1005.7 |
| 20260510101101 | 48 | 59 | 2.0 | 3.0 | 0.00 | 0.00 | 0.00 | 96 | 1006.7 |
| 20260510100556 | 48 | 67 | 2.0 | 3.0 | 0.00 | 0.00 | 0.00 | 96 | 1006.6 |
| 20260510100054 | 48 | 57 | 2.0 | 3.0 | 0.00 | 0.00 | 0.00 | 96 | 1006.4 |
| 20260510095550 | 48 | 98 | 2.0 | 3.0 | 0.00 | 0.00 | 0.00 | 96 | 1006.3 |
| 20260510095049 | 48 | 61 | 2.0 | 3.0 | 0.00 | 0.00 | 0.00 | 95 | 1006.3 |
| 20260510094558 | 48 | 222 | 0.0 | 1.0 | 0.00 | 0.16 | 0.00 | 95 | 1005.3 |
| 20260510094544 | 48 | 60 | 2.0 | 2.0 | 0.00 | 0.00 | 0.00 | 95 | 1006.3 |
| 20260510094040 | 48 | 69 | 2.0 | 3.0 | 0.00 | 0.00 | 0.00 | 95 | 1006.4 |
| 20260510093536 | 48 | 50 | 2.0 | 3.0 | 0.00 | 0.00 | 0.00 | 95 | 1006.2 |
| 20260510093057 | 49 | 222 | 0.0 | 0.0 | 0.00 | 0.16 | 0.00 | 95 | 1005.3 |
| 20260510093033 | 48 | 61 | 2.0 | 3.0 | 0.00 | 0.00 | 0.00 | 95 | 1006.3 |
| 20260510092530 | 48 | 34 | 0.0 | 2.0 | 0.00 | 0.00 | 0.00 | 95 | 1006.2 |
| 20260510092029 | 48 | 62 | 1.0 | 2.0 | 0.00 | 0.00 | 0.00 | 95 | 1006.2 |
| 20260510091556 | 49 | 222 | 0.0 | 0.0 | 0.00 | 0.17 | 0.00 | 95 | 1005.3 |
| 20260510091526 | 48 | 58 | 2.0 | 2.0 | 0.00 | 0.00 | 0.00 | 95 | 1006.3 |
| 20260510091022 | 48 | 65 | 2.0 | 2.0 | 0.00 | 0.00 | 0.00 | 95 | 1006.3 |
| 20260510090520 | 48 | 58 | 2.0 | 2.0 | 0.00 | 0.00 | 0.00 | 94 | 1006.1 |
| 20260510090056 | 49 | 222 | 0.0 | 2.0 | 0.00 | 0.17 | 0.00 | 95 | 1005.1 |
| 20260510090015 | 49 | 46 | 2.0 | 2.0 | 0.00 | 0.00 | 0.00 | 94 | 1005.9 |
| 20260510085515 | 49 | 66 | 2.0 | 3.0 | 0.00 | 0.00 | 0.00 | 95 | 1006.0 |
| 20260510085011 | 49 | 60 | 0.0 | 1.0 | 0.00 | 0.00 | 0.00 | 96 | 1006.1 |
| 20260510084556 | 48 | 249 | 0.0 | 0.0 | 0.00 | 0.17 | 0.00 | 95 | 1005.1 |
| 20260510084508 | 48 | 72 | 2.0 | 2.0 | 0.00 | 0.00 | 0.00 | 96 | 1006.1 |
| 20260510084005 | 48 | 61 | 2.0 | 2.0 | 0.00 | 0.00 | 0.00 | 95 | 1005.9 |
| 20260510083502 | 48 | 45 | 2.0 | 3.0 | 0.00 | 0.00 | 0.00 | 95 | 1005.9 |
| 20260510083057 | 48 | 249 | 0.0 | 0.0 | 0.00 | 0.17 | 0.00 | 94 | 1005.2 |
| 20260510082957 | 48 | 62 | 1.0 | 3.0 | 0.00 | 0.00 | 0.00 | 95 | 1006.1 |
| 20260510082455 | 48 | 63 | 1.0 | 2.0 | 0.00 | 0.00 | 0.00 | 95 | 1006.1 |
| 20260510081955 | 48 | 52 | 2.0 | 2.0 | 0.00 | 0.00 | 0.00 | 95 | 1006.3 |
| 20260510081556 | 48 | 249 | 0.0 | 0.0 | 0.00 | 0.17 | 0.00 | 94 | 1005.1 |
| 20260510081450 | 48 | 60 | 0.0 | 2.0 | 0.00 | 0.00 | 0.00 | 95 | 1006.1 |
| 20260510080947 | 48 | 57 | 1.0 | 1.0 | 0.00 | 0.00 | 0.00 | 95 | 1005.9 |
| 20260510080445 | 48 | 66 | 1.0 | 2.0 | 0.00 | 0.00 | 0.00 | 94 | 1005.9 |
| 20260510075942 | 48 | 54 | 2.0 | 2.0 | 0.00 | 0.00 | 0.00 | 95 | 1005.6 |
| 20260510075440 | 48 | 55 | 2.0 | 3.0 | 0.00 | 0.00 | 0.00 | 95 | 1005.6 |
| 20260510074937 | 49 | 55 | 0.0 | 2.0 | 0.00 | 0.00 | 0.00 | 95 | 1005.7 |
| 20260510074434 | 49 | 43 | 2.0 | 3.0 | 0.00 | 0.00 | 0.00 | 95 | 1005.7 |
| 20260510073930 | 48 | 76 | 0.0 | 1.0 | 0.00 | 0.00 | 0.00 | 95 | 1005.6 |
| 20260510073426 | 48 | 64 | 2.0 | 2.0 | 0.00 | 0.00 | 0.00 | 95 | 1005.7 |
| 20260510073058 | 49 | 249 | 0.0 | 0.0 | 0.00 | 0.18 | 0.00 | 95 | 1004.6 |
| 20260510072922 | 48 | 65 | 1.0 | 3.0 | 0.00 | 0.00 | 0.00 | 95 | 1005.5 |
| 20260510072420 | 48 | 51 | 2.0 | 2.0 | 0.00 | 0.00 | 0.00 | 96 | 1005.6 |
| 20260510071915 | 48 | 55 | 2.0 | 2.0 | 0.00 | 0.00 | 0.00 | 96 | 1005.6 |
| 20260510071557 | 48 | 257 | 0.0 | 0.0 | 0.00 | 0.19 | 0.00 | 95 | 1004.7 |
| 20260510071411 | 48 | 50 | 2.0 | 3.0 | 0.00 | 0.00 | 0.00 | 96 | 1005.6 |
| 20260510070910 | 48 | 70 | 2.0 | 3.0 | 0.00 | 0.00 | 0.00 | 96 | 1005.7 |
| 20260510070407 | 48 | 66 | 2.0 | 3.0 | 0.00 | 0.00 | 0.00 | 96 | 1005.6 |
| 20260510070057 | 49 | 281 | 0.0 | 0.0 | 0.00 | 0.21 | 0.00 | 95 | 1004.8 |
| 20260510065902 | 48 | 77 | 1.0 | 3.0 | 0.00 | 0.00 | 0.00 | 96 | 1005.9 |
| 20260510065359 | 48 | 54 | 2.0 | 3.0 | 0.00 | 0.00 | 0.00 | 96 | 1006.0 |
| 20260510064855 | 48 | 49 | 0.0 | 3.0 | 0.00 | 0.00 | 0.00 | 96 | 1005.9 |
| 20260510064557 | 49 | 281 | 0.0 | 0.0 | 0.00 | 0.22 | 0.00 | 95 | 1005.1 |
| 20260510064353 | 48 | 66 | 2.0 | 3.0 | 0.00 | 0.00 | 0.00 | 96 | 1006.1 |
| 20260510063849 | 48 | 62 | 2.0 | 3.0 | 0.00 | 0.00 | 0.00 | 96 | 1006.1 |
| 20260510063346 | 48 | 60 | 2.0 | 3.0 | 0.00 | 0.00 | 0.00 | 96 | 1006.1 |
| 20260510063057 | 49 | 281 | 0.0 | 0.0 | 0.00 | 0.24 | 0.00 | 95 | 1005.3 |
| 20260510062843 | 48 | 67 | 2.0 | 2.0 | 0.00 | 0.00 | 0.00 | 96 | 1006.2 |
| 20260510062338 | 48 | 56 | 2.0 | 2.0 | 0.00 | 0.00 | 0.00 | 96 | 1006.2 |
| 20260510061833 | 48 | 57 | 2.0 | 3.0 | 0.00 | 0.00 | 0.00 | 96 | 1006.3 |
| 20260510061557 | 49 | 281 | 0.0 | 0.0 | 0.00 | 0.24 | 0.00 | 95 | 1005.2 |
| 20260510061331 | 48 | 41 | 2.0 | 3.0 | 0.00 | 0.00 | 0.00 | 96 | 1006.3 |
| 20260510060826 | 49 | 59 | 2.0 | 3.0 | 0.00 | 0.00 | 0.00 | 96 | 1006.3 |
| 20260510060324 | 49 | 69 | 2.0 | 3.0 | 0.00 | 0.00 | 0.00 | 96 | 1006.4 |
| 20260510060056 | 49 | 281 | 0.0 | 0.0 | 0.00 | 0.25 | 0.00 | 95 | 1005.8 |
| 20260510055821 | 49 | 53 | 2.0 | 2.0 | 0.00 | 0.00 | 0.00 | 96 | 1007.0 |
| 20260510055319 | 49 | 70 | 2.0 | 3.0 | 0.00 | 0.00 | 0.00 | 96 | 1007.1 |
| 20260510054819 | 48 | 67 | 2.0 | 3.0 | 0.00 | 0.00 | 0.00 | 96 | 1007.5 |
| 20260510054315 | 48 | 45 | 2.0 | 2.0 | 0.00 | 0.00 | 0.00 | 96 | 1007.4 |
| 20260510053810 | 49 | 51 | 2.0 | 2.0 | 0.00 | 0.00 | 0.00 | 96 | 1007.6 |
| 20260510053305 | 49 | 51 | 1.0 | 2.0 | 0.00 | 0.00 | 0.00 | 96 | 1007.4 |
| 20260510052802 | 49 | 65 | 2.0 | 3.0 | 0.00 | 0.00 | 0.00 | 96 | 1007.5 |
| 20260510052257 | 49 | 60 | 2.0 | 3.0 | 0.00 | 0.00 | 0.00 | 96 | 1007.4 |
| 20260510051754 | 49 | 72 | 2.0 | 3.0 | 0.00 | 0.00 | 0.00 | 96 | 1007.5 |
| 20260510051556 | 49 | 281 | 0.0 | 0.0 | 0.00 | 0.26 | 0.00 | 96 | 1006.5 |
| 20260510051250 | 49 | 47 | 2.0 | 3.0 | 0.00 | 0.00 | 0.00 | 96 | 1007.5 |
| 20260510050747 | 49 | 55 | 2.0 | 3.0 | 0.00 | 0.00 | 0.00 | 96 | 1007.5 |
| 20260510050244 | 48 | 44 | 0.0 | 1.0 | 0.00 | 0.00 | 0.00 | 96 | 1007.5 |
| 20260510050056 | 48 | 265 | 0.0 | 0.0 | 0.00 | 0.26 | 0.00 | 96 | 1006.7 |
| 20260510045742 | 48 | 58 | 1.0 | 2.0 | 0.00 | 0.00 | 0.00 | 96 | 1007.7 |
| 20260510045238 | 48 | 68 | 2.0 | 2.0 | 0.00 | 0.00 | 0.00 | 96 | 1007.4 |
| 20260510044735 | 47 | 60 | 0.0 | 2.0 | 0.00 | 0.00 | 0.00 | 96 | 1007.2 |
| 20260510044556 | 48 | 279 | 0.0 | 0.0 | 0.00 | 0.26 | 0.00 | 94 | 1006.4 |
| 20260510044233 | 47 | 58 | 0.0 | 3.0 | 0.00 | 0.00 | 0.00 | 95 | 1006.4 |
| 20260510043727 | 47 | 69 | 2.0 | 3.0 | 0.00 | 0.00 | 0.00 | 95 | 1006.4 |
| 20260510043225 | 47 | 52 | 2.0 | 2.0 | 0.00 | 0.00 | 0.00 | 95 | 1006.1 |
| 20260510043057 | 48 | 279 | 0.0 | 0.0 | 0.00 | 0.26 | 0.00 | 94 | 1005.3 |
| 20260510042722 | 47 | 61 | 2.0 | 2.0 | 0.00 | 0.00 | 0.00 | 95 | 1006.2 |
| 20260510042217 | 47 | 63 | 1.0 | 2.0 | 0.00 | 0.00 | 0.00 | 95 | 1006.3 |
| 20260510041715 | 47 | 53 | 2.0 | 3.0 | 0.00 | 0.00 | 0.00 | 95 | 1006.4 |
| 20260510041212 | 48 | 62 | 2.0 | 4.0 | 0.00 | 0.00 | 0.00 | 95 | 1006.4 |
| 20260510040709 | 48 | 68 | 2.0 | 2.0 | 0.00 | 0.00 | 0.00 | 95 | 1006.1 |
| 20260510040206 | 48 | 88 | 0.0 | 2.0 | 0.00 | 0.00 | 0.00 | 95 | 1006.1 |
| 20260510035701 | 48 | 61 | 2.0 | 3.0 | 0.00 | 0.27 | 0.27 | 95 | 1006.3 |
| 20260510035157 | 47 | 72 | 0.0 | 3.0 | 0.00 | 0.27 | 0.27 | 95 | 1006.2 |
| 20260510034653 | 48 | 48 | 2.0 | 2.0 | 0.00 | 0.27 | 0.27 | 95 | 1006.1 |
| 20260510034556 | 48 | 116 | 0.0 | 1.0 | 0.00 | 0.26 | 0.26 | 93 | 1005.2 |
| 20260510034151 | 48 | 54 | 2.0 | 3.0 | 0.00 | 0.27 | 0.27 | 95 | 1005.8 |
| 20260510033647 | 48 | 58 | 2.0 | 3.0 | 0.00 | 0.27 | 0.27 | 94 | 1006.0 |
| 20260510033145 | 48 | 44 | 0.0 | 2.0 | 0.00 | 0.27 | 0.27 | 94 | 1005.9 |
| 20260510032641 | 48 | 49 | 2.0 | 3.0 | 0.00 | 0.27 | 0.27 | 95 | 1005.4 |
| 20260510032136 | 48 | 79 | 2.0 | 3.0 | 0.00 | 0.27 | 0.27 | 95 | 1005.4 |
| 20260510031632 | 48 | 69 | 2.0 | 3.0 | 0.00 | 0.27 | 0.27 | 95 | 1005.5 |
| 20260510031557 | 48 | 49 | 0.0 | 3.0 | 0.00 | 0.26 | 0.26 | 94 | 1004.5 |
| 20260510031129 | 47 | 57 | 2.0 | 3.0 | 0.00 | 0.27 | 0.27 | 95 | 1005.3 |
| 20260510030628 | 47 | 62 | 2.0 | 3.0 | 0.00 | 0.27 | 0.27 | 95 | 1005.3 |
| 20260510030126 | 48 | 67 | 2.0 | 2.0 | 0.00 | 0.27 | 0.27 | 95 | 1005.2 |
| 20260510025623 | 48 | 76 | 2.0 | 4.0 | 0.00 | 0.27 | 0.27 | 95 | 1005.4 |
| 20260510025121 | 48 | 68 | 2.0 | 2.0 | 0.00 | 0.27 | 0.27 | 95 | 1005.4 |
| 20260510024617 | 48 | 135 | 0.0 | 4.0 | 0.00 | 0.27 | 0.27 | 95 | 1005.3 |
| 20260510024557 | 48 | 118 | 1.0 | 2.0 | 0.00 | 0.26 | 0.26 | 93 | 1004.5 |
| 20260510024114 | 48 | 63 | 3.0 | 3.0 | 0.00 | 0.27 | 0.27 | 94 | 1005.5 |
| 20260510023610 | 48 | 56 | 2.0 | 2.0 | 0.00 | 0.27 | 0.27 | 94 | 1005.5 |
| 20260510023108 | 48 | 63 | 1.0 | 3.0 | 0.00 | 0.27 | 0.27 | 94 | 1005.5 |
| 20260510023057 | 49 | 85 | 0.0 | 1.0 | 0.00 | 0.26 | 0.26 | 92 | 1004.7 |
| 20260510022607 | 48 | 60 | 0.0 | 3.0 | 0.00 | 0.27 | 0.27 | 94 | 1005.6 |
| 20260510022102 | 48 | 75 | 1.0 | 3.0 | 0.00 | 0.27 | 0.27 | 93 | 1005.6 |
| 20260510021558 | 49 | 143 | 0.0 | 2.0 | 0.00 | 0.26 | 0.26 | 91 | 1004.6 |
| 20260510021056 | 49 | 58 | 2.0 | 2.0 | 0.00 | 0.27 | 0.27 | 93 | 1005.3 |
| 20260510020555 | 49 | 79 | 2.0 | 3.0 | 0.00 | 0.27 | 0.27 | 93 | 1005.3 |
| 20260510020056 | 50 | 299 | 0.0 | 2.0 | 0.00 | 0.26 | 0.26 | 90 | 1004.2 |
| 20260510020051 | 49 | 50 | 2.0 | 3.0 | 0.00 | 0.27 | 0.27 | 93 | 1005.2 |
| 20260510015548 | 49 | 62 | 2.0 | 3.0 | 0.00 | 0.27 | 0.27 | 92 | 1005.1 |
| 20260510015044 | 49 | 64 | 2.0 | 3.0 | 0.00 | 0.27 | 0.27 | 92 | 1005.3 |
| 20260510014540 | 50 | 57 | 0.0 | 2.0 | 0.00 | 0.27 | 0.27 | 91 | 1005.3 |
| 20260510014037 | 50 | 63 | 0.0 | 2.0 | 0.00 | 0.27 | 0.27 | 90 | 1005.4 |
| 20260510013532 | 50 | 53 | 2.0 | 2.0 | 0.00 | 0.27 | 0.27 | 90 | 1005.3 |
| 20260510013057 | 51 | 225 | 0.0 | 2.0 | 0.00 | 0.26 | 0.26 | 88 | 1004.2 |
| 20260510013028 | 51 | 85 | 0.0 | 3.0 | 0.00 | 0.27 | 0.27 | 89 | 1005.2 |
| 20260510012522 | 51 | 67 | 2.0 | 2.0 | 0.00 | 0.27 | 0.27 | 88 | 1005.2 |
| 20260510012019 | 52 | 57 | 2.0 | 2.0 | 0.00 | 0.27 | 0.27 | 87 | 1005.0 |
| 20260510011556 | 52 | 215 | 0.0 | 2.0 | 0.00 | 0.26 | 0.26 | 88 | 1004.1 |
| 20260510011518 | 52 | 55 | 2.0 | 3.0 | 0.00 | 0.27 | 0.27 | 87 | 1005.3 |
| 20260510011014 | 52 | 38 | 0.0 | 3.0 | 0.00 | 0.27 | 0.27 | 88 | 1005.3 |
| 20260510010511 | 52 | 54 | 1.0 | 2.0 | 0.00 | 0.27 | 0.27 | 88 | 1005.1 |
| 20260510010056 | 51 | 181 | 0.0 | 3.0 | 0.00 | 0.26 | 0.26 | 89 | 1004.2 |
| 20260510010008 | 51 | 79 | 2.0 | 2.0 | 0.00 | 0.27 | 0.27 | 90 | 1005.1 |
| 20260510005504 | 50 | 72 | 3.0 | 3.0 | 0.00 | 0.27 | 0.27 | 91 | 1005.1 |
| 20260510005002 | 50 | 76 | 1.0 | 3.0 | 0.00 | 0.27 | 0.27 | 90 | 1004.9 |
| 20260510004458 | 50 | 65 | 1.0 | 2.0 | 0.00 | 0.27 | 0.27 | 90 | 1004.9 |
| 20260510003957 | 50 | 68 | 1.0 | 2.0 | 0.00 | 0.27 | 0.27 | 89 | 1005.2 |
| 20260510003453 | 51 | 53 | 2.0 | 2.0 | 0.00 | 0.27 | 0.27 | 88 | 1004.7 |
| 20260510003056 | 52 | 239 | 0.0 | 2.0 | 0.00 | 0.26 | 0.26 | 85 | 1003.8 |
| 20260510002948 | 51 | 54 | 2.0 | 3.0 | 0.00 | 0.27 | 0.27 | 88 | 1004.9 |
| 20260510002445 | 51 | 85 | 0.0 | 2.0 | 0.00 | 0.27 | 0.27 | 87 | 1004.7 |
| 20260510001941 | 52 | 64 | 1.0 | 2.0 | 0.00 | 0.27 | 0.27 | 85 | 1004.8 |
| 20260510001557 | 53 | 239 | 0.0 | 2.0 | 0.00 | 0.26 | 0.26 | 82 | 1003.8 |
| 20260510001439 | 52 | 65 | 2.0 | 2.0 | 0.00 | 0.27 | 0.27 | 84 | 1004.8 |
| 20260510000936 | 52 | 53 | 2.0 | 2.0 | 0.00 | 0.27 | 0.27 | 83 | 1004.8 |
| 20260510000433 | 53 | 55 | 0.0 | 2.0 | 0.00 | 0.27 | 0.27 | 81 | 1004.8 |
| 20260510000056 | 54 | 239 | 0.0 | 3.0 | 0.00 | 0.26 | 0.26 | 80 | 1003.8 |
| 20260509235929 | 53 | 265 | 0.0 | 2.0 | 0.00 | 0.27 | 0.27 | 80 | 1004.7 |
| 20260509235426 | 54 | 234 | 1.0 | 2.0 | 0.00 | 0.27 | 0.27 | 79 | 1004.8 |
| 20260509234922 | 54 | 51 | 0.0 | 3.0 | 0.00 | 0.27 | 0.27 | 79 | 1004.7 |
| 20260509234419 | 54 | 52 | 2.0 | 2.0 | 0.00 | 0.27 | 0.27 | 80 | 1004.4 |
| 20260509233917 | 54 | 58 | 0.0 | 2.0 | 0.00 | 0.27 | 0.27 | 79 | 1004.4 |
| 20260509233414 | 54 | 258 | 3.0 | 4.0 | 0.00 | 0.27 | 0.27 | 78 | 1004.3 |
| 20260509233058 | 55 | 226 | 2.0 | 6.0 | 0.00 | 0.26 | 0.26 | 78 | 1003.1 |
| 20260509232910 | 54 | 230 | 2.0 | 3.0 | 0.00 | 0.27 | 0.27 | 79 | 1004.2 |
| 20260509232408 | 55 | 258 | 3.0 | 5.0 | 0.00 | 0.27 | 0.27 | 77 | 1004.4 |
| 20260509231903 | 55 | 219 | 2.0 | 3.0 | 0.00 | 0.27 | 0.27 | 78 | 1004.2 |
| 20260509231557 | 55 | 231 | 2.0 | 3.0 | 0.00 | 0.26 | 0.26 | 77 | 1003.1 |
| 20260509231400 | 55 | 254 | 3.0 | 3.0 | 0.00 | 0.27 | 0.27 | 78 | 1003.9 |
| 20260509230859 | 55 | 44 | 0.0 | 5.0 | 0.00 | 0.27 | 0.27 | 78 | 1003.8 |
| 20260509230355 | 55 | 311 | 1.0 | 3.0 | 0.00 | 0.27 | 0.27 | 78 | 1003.9 |
| 20260509230057 | 55 | 234 | 1.0 | 5.0 | 0.00 | 0.26 | 0.26 | 79 | 1003.1 |
| 20260509225851 | 55 | 66 | 2.0 | 2.0 | 0.00 | 0.27 | 0.27 | 78 | 1004.3 |
| 20260509225348 | 55 | 216 | 1.0 | 4.0 | 0.00 | 0.27 | 0.27 | 77 | 1004.4 |
| 20260509224843 | 55 | 236 | 4.0 | 5.0 | 0.00 | 0.27 | 0.27 | 78 | 1004.1 |
| 20260509224557 | 55 | 210 | 2.0 | 5.0 | 0.00 | 0.26 | 0.26 | 78 | 1003.1 |
| 20260509224340 | 55 | 249 | 4.0 | 4.0 | 0.00 | 0.27 | 0.27 | 79 | 1004.1 |
| 20260509223837 | 55 | 235 | 0.0 | 3.0 | 0.00 | 0.27 | 0.27 | 77 | 1004.1 |
| 20260509223333 | 55 | 96 | 2.0 | 8.0 | 0.00 | 0.27 | 0.27 | 77 | 1004.0 |
| 20260509223057 | 55 | 239 | 2.0 | 5.0 | 0.00 | 0.26 | 0.26 | 77 | 1003.0 |
| 20260509222831 | 55 | 218 | 2.0 | 5.0 | 0.00 | 0.27 | 0.27 | 77 | 1003.9 |
| 20260509222326 | 56 | 54 | 2.0 | 2.0 | 0.00 | 0.27 | 0.27 | 76 | 1004.0 |
| 20260509221821 | 56 | 297 | 2.0 | 4.0 | 0.00 | 0.27 | 0.27 | 77 | 1004.1 |
| 20260509221556 | 55 | 230 | 2.0 | 3.0 | 0.00 | 0.26 | 0.26 | 78 | 1003.0 |
| 20260509221319 | 56 | 75 | 1.0 | 2.0 | 0.00 | 0.27 | 0.27 | 77 | 1004.0 |
| 20260509220819 | 56 | 244 | 4.0 | 4.0 | 0.00 | 0.27 | 0.27 | 77 | 1004.0 |
| 20260509220315 | 56 | 53 | 2.0 | 2.0 | 0.00 | 0.27 | 0.27 | 78 | 1004.0 |
| 20260509220057 | 55 | 250 | 0.0 | 3.0 | 0.00 | 0.26 | 0.26 | 79 | 1003.1 |
| 20260509215811 | 56 | 228 | 0.0 | 4.0 | 0.00 | 0.27 | 0.27 | 77 | 1004.2 |
| 20260509215308 | 55 | 222 | 2.0 | 3.0 | 0.00 | 0.27 | 0.27 | 80 | 1004.3 |
| 20260509214805 | 55 | 233 | 1.0 | 3.0 | 0.00 | 0.27 | 0.27 | 81 | 1004.2 |
| 20260509214302 | 55 | 73 | 1.0 | 3.0 | 0.00 | 0.27 | 0.27 | 84 | 1004.5 |
| 20260509213759 | 55 | 49 | 0.0 | 2.0 | 0.00 | 0.27 | 0.27 | 82 | 1004.7 |
| 20260509213254 | 55 | 68 | 2.0 | 2.0 | 0.00 | 0.27 | 0.27 | 83 | 1004.5 |
| 20260509213057 | 55 | 159 | 0.0 | 3.0 | 0.00 | 0.26 | 0.26 | 84 | 1003.5 |
| 20260509212752 | 55 | 50 | 0.0 | 3.0 | 0.00 | 0.27 | 0.27 | 83 | 1004.7 |
| 20260509212249 | 55 | 309 | 0.0 | 2.0 | 0.00 | 0.27 | 0.27 | 81 | 1004.7 |
| 20260509211745 | 54 | 53 | 2.0 | 4.0 | 0.00 | 0.27 | 0.27 | 82 | 1004.7 |
| 20260509211556 | 54 | 272 | 1.0 | 3.0 | 0.00 | 0.26 | 0.26 | 84 | 1003.6 |
| 20260509211242 | 54 | 50 | 0.0 | 2.0 | 0.00 | 0.27 | 0.27 | 84 | 1004.6 |
| 20260509210738 | 54 | 65 | 2.0 | 2.0 | 0.00 | 0.27 | 0.27 | 83 | 1004.9 |
| 20260509210236 | 54 | 76 | 2.0 | 3.0 | 0.00 | 0.27 | 0.27 | 81 | 1004.7 |
| 20260509210056 | 53 | 66 | 1.0 | 2.0 | 0.00 | 0.26 | 0.26 | 83 | 1003.7 |
| 20260509205735 | 54 | 56 | 2.0 | 2.0 | 0.00 | 0.27 | 0.27 | 84 | 1004.7 |
| 20260509205230 | 53 | 228 | 0.0 | 2.0 | 0.00 | 0.27 | 0.27 | 83 | 1004.5 |
| 20260509204726 | 53 | 15 | 1.0 | 3.0 | 0.00 | 0.27 | 0.27 | 84 | 1004.8 |
| 20260509204556 | 53 | 97 | 1.0 | 3.0 | 0.01 | 0.26 | 0.26 | 86 | 1003.7 |
| 20260509204223 | 53 | 61 | 2.0 | 2.0 | 0.00 | 0.27 | 0.27 | 85 | 1004.8 |
| 20260509203718 | 53 | 58 | 1.0 | 2.0 | 0.00 | 0.27 | 0.27 | 87 | 1005.0 |
| 20260509203217 | 52 | 56 | 2.0 | 3.0 | 0.00 | 0.27 | 0.27 | 87 | 1004.8 |
| 20260509203057 | 52 | 197 | 0.0 | 1.0 | 0.01 | 0.26 | 0.26 | 88 | 1003.8 |
| 20260509202712 | 52 | 59 | 2.0 | 2.0 | 0.00 | 0.27 | 0.27 | 88 | 1005.0 |
| 20260509202208 | 52 | 54 | 2.0 | 3.0 | 0.02 | 0.27 | 0.27 | 88 | 1004.9 |
| 20260509201703 | 52 | 56 | 2.0 | 2.0 | 0.00 | 0.26 | 0.26 | 87 | 1004.8 |
| 20260509201200 | 52 | 70 | 2.0 | 2.0 | 0.00 | 0.26 | 0.26 | 86 | 1005.1 |
| 20260509200656 | 52 | 47 | 1.0 | 2.0 | 0.00 | 0.26 | 0.26 | 85 | 1005.1 |
| 20260509200151 | 52 | 38 | 0.0 | 2.0 | 0.00 | 0.26 | 0.26 | 88 | 1005.0 |
| 20260509195648 | 52 | 50 | 1.0 | 2.0 | 0.00 | 0.26 | 0.26 | 87 | 1005.1 |
| 20260509195143 | 52 | 231 | 1.0 | 3.0 | 0.00 | 0.26 | 0.26 | 85 | 1005.0 |
| 20260509194643 | 52 | 49 | 1.0 | 2.0 | 0.00 | 0.26 | 0.26 | 85 | 1005.2 |
| 20260509194557 | 52 | 233 | 1.0 | 7.0 | 0.01 | 0.25 | 0.25 | 85 | 1004.2 |
| 20260509194140 | 52 | 57 | 4.0 | 4.0 | 0.00 | 0.26 | 0.26 | 86 | 1005.3 |
| 20260509193636 | 52 | 302 | 0.0 | 4.0 | 0.00 | 0.26 | 0.26 | 86 | 1005.4 |
| 20260509193131 | 52 | 208 | 1.0 | 6.0 | 0.00 | 0.26 | 0.26 | 86 | 1005.3 |
| 20260509193058 | 52 | 233 | 2.0 | 7.0 | 0.01 | 0.25 | 0.25 | 86 | 1004.4 |
| 20260509192628 | 52 | 42 | 2.0 | 5.0 | 0.00 | 0.26 | 0.26 | 88 | 1005.4 |
| 20260509192124 | 52 | 320 | 0.0 | 2.0 | 0.00 | 0.26 | 0.26 | 87 | 1005.4 |
| 20260509191623 | 52 | 260 | 2.0 | 3.0 | 0.00 | 0.26 | 0.26 | 87 | 1005.8 |
| 20260509191556 | 52 | 237 | 1.0 | 9.0 | 0.01 | 0.25 | 0.25 | 87 | 1004.6 |
| 20260509191121 | 52 | 73 | 4.0 | 4.0 | 0.02 | 0.26 | 0.26 | 88 | 1005.7 |
| 20260509190617 | 51 | 249 | 0.0 | 4.0 | 0.02 | 0.26 | 0.26 | 87 | 1005.8 |
| 20260509190115 | 51 | 224 | 0.0 | 4.0 | 0.02 | 0.26 | 0.26 | 88 | 1005.5 |
| 20260509185612 | 52 | 228 | 1.0 | 2.0 | 0.02 | 0.26 | 0.26 | 87 | 1005.6 |